15min,AgWx,beryljct,423,27OCT2021:00:00:00,30.7,12.77,28.7,30.2,33.1,34.5,30.2,75,79,72,0.451,26.0,27.1,24.4,2.587,0.8,201,50,3.3,-0.00019,-0.00027,43.1,47.7,27,0,0,.,16.25,0.00,0.00
15min,AgWx,beryljct,423,27OCT2021:00:15:00,30.5,12.77,29.1,28.6,29.0,30.2,27.9,87,91,80,0.482,25.5,26.2,24.5,2.346,2.6,168,24,4.1,-0.00010,-0.00012,42.9,47.7,27,0,0,.,16.26,0.00,0.00
15min,AgWx,beryljct,423,27OCT2021:00:30:00,30.2,12.76,29.1,29.7,29.6,30.2,28.7,89,91,88,0.492,26.8,27.1,26.3,1.82,3.2,180,9.6,4.6,-0.00009,-0.00011,42.8,47.6,27,0,0,.,16.25,0.00,0.00
15min,AgWx,beryljct,423,27OCT2021:00:45:00,30.0,12.76,28.9,28.9,29.1,30.2,28.4,89,90,87,0.482,26.2,27.3,25.2,0.504,1.4,155,12,3.4,-0.00015,-0.00020,42.6,47.6,27,0,0,.,16.25,0.00,0.00
15min,AgWx,beryljct,423,27OCT2021:01:00:00,29.5,12.75,28.4,28.2,28.6,29.1,28.2,89,90,89,0.470,25.9,26.6,25.4,0,1.1,124,7.8,2.8,-0.00016,-0.00022,42.5,47.5,27,0,0,.,16.25,0.00,0.00
15min,AgWx,beryljct,423,27OCT2021:01:15:00,29.2,12.75,28.0,27.7,28.1,28.6,27.7,90,91,90,0.464,25.6,26.3,25.1,2.521,2.2,135,16,4.2,-0.00012,-0.00015,42.3,47.5,27,0,0,.,16.26,0.00,0.00
15min,AgWx,beryljct,423,27OCT2021:01:30:00,28.8,12.74,28.2,27.5,27.3,28.1,26.9,91,93,91,0.470,25.1,25.7,24.7,2.784,1.7,168,21,3.0,-0.00014,-0.00018,42.2,47.4,27,0,0,.,16.26,0.00,0.00
15min,AgWx,beryljct,423,27OCT2021:01:45:00,28.6,12.72,28.0,28.4,28.0,28.7,27.6,92,93,91,0.482,26.0,26.6,25.3,0.767,1.3,189,26,3.1,-0.00015,-0.00020,42.1,47.4,27,0,0,.,16.26,0.00,0.00
15min,AgWx,beryljct,423,27OCT2021:02:00:00,28.4,12.72,28.0,27.7,28.1,28.5,27.7,91,91,90,0.463,25.8,26.3,25.3,3.88,2.2,156,15,3.9,-0.00012,-0.00016,41.9,47.3,27,0,0,.,16.26,0.00,0.00
15min,AgWx,beryljct,423,27OCT2021:02:15:00,28.4,12.71,31.4,30.0,28.4,30.0,27.7,90,91,89,0.504,25.9,27.3,25.2,1.008,1.9,143,44,4.0,-0.00013,-0.00017,41.8,47.3,27,0,0,.,16.25,0.00,0.00
15min,AgWx,beryljct,423,27OCT2021:02:30:00,28.5,12.71,28.6,28.3,28.5,30.3,27.5,88,92,84,0.481,25.4,27.3,24.2,2.346,3.4,83,20,7.7,-0.00009,-0.00010,41.7,47.2,27,0,0,.,16.26,0.00,0.00
15min,AgWx,beryljct,423,27OCT2021:02:45:00,28.4,12.7,27.4,27.4,27.6,28.4,27.1,91,92,90,0.466,25.3,26.3,24.6,2.039,2.4,181,29,3.3,-0.00012,-0.00014,41.6,47.1,27,0,0,.,16.26,0.00,0.00
15min,AgWx,beryljct,423,27OCT2021:03:00:00,28.2,12.67,27.6,27.7,27.5,28.0,26.5,92,93,91,0.471,25.6,26.2,24.4,3.135,2.6,175,24,3.2,-0.00011,-0.00014,41.5,47.1,27,0,0,.,16.26,0.00,0.00
15min,AgWx,beryljct,423,27OCT2021:03:15:00,28.1,12.68,28.1,28.0,28.0,28.5,27.3,91,92,89,0.460,25.8,26.4,25.1,1.491,1.3,227,52,3.0,-0.00015,-0.00020,41.3,47.0,27,0,0,.,16.26,0.00,0.00
15min,AgWx,beryljct,423,27OCT2021:03:30:00,27.9,12.67,26.8,27.5,27.5,28.1,26.5,90,91,88,0.458,24.8,25.7,23.4,0.57,0.7,92,24,2.4,-0.00017,-0.00025,41.2,46.9,27,0,0,.,16.26,0.00,0.00
15min,AgWx,beryljct,423,27OCT2021:03:45:00,27.6,12.66,29.4,28.5,27.5,28.5,26.8,90,91,89,0.482,24.8,26.2,23.9,1.118,1.2,204,45,2.9,-0.00015,-0.00021,41.1,46.9,27,0,0,.,16.26,0.00,0.00
15min,AgWx,beryljct,423,27OCT2021:04:00:00,27.5,12.65,27.5,28.1,27.9,28.7,27.4,89,91,86,0.470,25.0,26.3,24.1,1.622,0.6,223,26,2.2,-0.00018,-0.00026,41.0,46.8,27,0,0,.,16.26,0.00,0.00
15min,AgWx,beryljct,423,27OCT2021:04:15:00,27.4,12.64,26.7,26.3,27.5,28.5,26.1,89,91,88,0.437,24.7,25.7,23.1,2.389,2.4,163,69,5.1,-0.00011,-0.00014,40.9,46.7,27,0,0,.,16.26,0.00,0.00
15min,AgWx,beryljct,423,27OCT2021:04:30:00,27.2,12.63,26.8,26.1,26.3,26.7,26.0,91,92,91,0.441,24.2,24.7,23.7,0,1.0,95,42,2.3,-0.00016,-0.00022,40.9,46.7,27,0,0,.,16.26,0.00,0.00
15min,AgWx,beryljct,423,27OCT2021:04:45:00,26.9,12.61,27.1,26.4,26.4,26.8,26.0,93,94,92,0.454,24.5,25.1,24.0,0.723,1.8,191,21,3.7,-0.00013,-0.00017,40.7,46.6,27,0,0,.,16.26,0.00,0.00
15min,AgWx,beryljct,423,27OCT2021:05:00:00,26.8,12.59,25.8,27.2,26.8,27.6,26.0,93,94,93,0.468,25.2,26.0,24.2,3.135,2.4,185,19,4.0,-0.00012,-0.00015,40.7,46.5,26,0,0,.,16.26,0.00,0.00
15min,AgWx,beryljct,423,27OCT2021:05:15:00,26.8,12.59,28.4,27.8,26.9,27.8,25.9,92,93,91,0.476,24.9,25.9,23.8,0.767,1.2,168,28,3.9,-0.00015,-0.00021,40.6,46.5,27,0,0,.,16.26,0.00,0.00
15min,AgWx,beryljct,423,27OCT2021:05:30:00,26.8,12.57,27.5,26.8,26.9,28.0,26.1,91,93,90,0.447,24.7,26.0,23.8,0.943,2.1,230,37,3.4,-0.00012,-0.00016,40.5,46.4,27,0,0,.,16.26,0.00,0.00
15min,AgWx,beryljct,423,27OCT2021:05:45:00,26.7,12.55,25.1,25.0,26.2,27.5,25.0,91,91,89,0.418,23.8,25.2,22.7,4.034,3.4,330,18,5.0,-0.00009,-0.00010,40.4,46.4,27,0,0,.,16.26,0.00,0.00
15min,AgWx,beryljct,423,27OCT2021:06:00:00,26.6,12.54,26.0,25.7,25.5,26.0,24.8,93,94,91,0.438,23.6,24.3,22.7,5.524,4.3,0.7,27,6.0,-0.00008,-0.00009,40.3,46.3,27,0,0,.,16.26,0.00,0.00
15min,AgWx,beryljct,423,27OCT2021:06:15:00,26.6,12.54,25.8,25.8,26.0,27.0,25.4,92,94,91,0.436,24.1,25.4,23.2,4.647,3.9,334,37,6.2,0.00004,0.00007,40.3,46.2,26,0,0,.,16.26,0.00,0.00
15min,AgWx,beryljct,423,27OCT2021:06:30:00,26.4,12.53,25.2,25.2,25.5,25.7,25.1,93,93,92,0.430,23.6,24.1,23.2,2.258,3.3,321,11,4.5,0.00004,0.00006,40.2,46.2,27,0,0,.,16.26,0.00,0.00
15min,AgWx,beryljct,423,27OCT2021:06:45:00,26.3,12.53,27.4,26.8,26.1,26.8,25.1,94,94,93,0.464,24.5,25.4,23.4,3.025,3.1,350,16,4.8,0.00003,0.00005,40.1,46.2,26,1,0,.,16.26,0.00,0.00
15min,AgWx,beryljct,423,27OCT2021:07:00:00,26.3,12.53,28.9,27.0,26.2,27.1,25.5,93,94,93,0.468,24.6,25.6,23.8,3.025,1.2,327,24,3.1,0.00003,0.00004,40.1,46.1,27,4,0,.,16.26,0.00,0.00
15min,AgWx,beryljct,423,27OCT2021:07:15:00,26.7,12.74,27.1,27.3,28.3,29.5,27.1,92,95,88,0.448,26.2,27.4,24.4,2.083,3.6,315,73,5.4,0.00015,0.00019,40.0,46.0,26,32,0,.,16.26,0.00,0.00
15min,AgWx,beryljct,423,27OCT2021:07:30:00,27.5,13.08,28.7,28.4,28.0,28.5,27.0,91,92,89,0.478,25.7,26.3,24.4,2.85,2.7,186,37,4.6,0.00026,0.00030,39.9,45.9,26,71,0,.,16.26,0.00,0.00
15min,AgWx,beryljct,423,27OCT2021:07:45:00,28.5,13.58,28.6,28.3,28.1,28.4,27.8,92,93,91,0.487,26.0,26.5,25.5,2.346,2.0,119,24,3.5,0.00035,0.00039,39.9,45.9,26,109,0,.,16.26,0.00,0.00
15min,AgWx,beryljct,423,27OCT2021:08:00:00,29.8,14.3,30.1,30.3,29.1,30.4,28.3,93,93,91,0.520,27.2,28.4,26.5,2.214,1.4,120,14,3.1,0.00048,0.00053,39.8,45.8,26,150,0,.,16.26,0.00,0.00
15min,AgWx,beryljct,423,27OCT2021:08:15:00,31.5,14.77,32.1,31.4,30.6,31.4,30.0,90,92,89,0.531,28.1,29.1,27.4,2.959,2.2,176,11,3.0,0.00063,0.00070,39.7,45.8,26,193,0,.,16.26,0.00,0.00
15min,AgWx,beryljct,423,27OCT2021:08:30:00,33.3,14.75,34.6,34.2,33.0,34.2,31.4,85,89,80,0.535,29.0,29.7,28.4,1.776,2.7,201,7.6,3.6,0.00082,0.00092,39.7,45.7,26,237,0,.,16.25,0.00,0.00
15min,AgWx,beryljct,423,27OCT2021:08:45:00,35.1,14.7,34.9,35.0,35.0,35.8,34.3,79,81,78,0.536,29.2,29.9,28.7,0,1.7,185,21,3.0,0.00106,0.00117,39.7,45.6,26,282,51,.,16.25,0.00,0.00
15min,AgWx,beryljct,423,27OCT2021:09:00:00,37.2,14.64,37.1,36.4,35.7,36.4,35.0,78,80,76,0.581,29.4,30.8,28.6,2.499,1.1,117,29,3.3,0.00126,0.00137,39.6,45.6,26,327,100,.,16.25,0.00,0.00
15min,AgWx,beryljct,423,27OCT2021:09:15:00,39.1,14.64,36.9,37.2,36.6,37.4,36.1,79,81,77,0.584,30.8,31.4,30.1,1.315,2.2,96,12,3.7,0.00142,0.00157,39.6,45.5,26,371,0,.,16.25,0.00,0.00
15min,AgWx,beryljct,423,27OCT2021:09:30:00,41.1,14.64,38.7,38.8,38.0,38.9,37.1,78,80,76,0.607,31.7,32.7,30.4,1.644,1.4,58,33,2.9,0.00165,0.00180,39.5,45.5,26,410,0,.,16.25,0.00,0.00
15min,AgWx,beryljct,423,27OCT2021:09:45:00,43.3,14.66,41.0,40.6,39.4,40.6,38.7,72,76,68,0.593,31.1,31.8,30.4,0.329,1.7,12,35,3.3,0.00186,0.00204,39.5,45.4,26,447,0,.,16.25,0.00,0.00
15min,AgWx,beryljct,423,27OCT2021:10:00:00,45.3,14.61,41.3,41.0,41.0,41.8,40.3,66,69,64,0.567,30.5,31.6,29.5,2.762,3.1,58,24,5.0,0.00206,0.00233,39.5,45.4,26,484,0,.,16.25,0.00,0.00
15min,AgWx,beryljct,423,27OCT2021:10:15:00,46.8,14.09,41.4,41.9,41.3,41.9,40.9,64,65,62,0.570,30.1,30.8,29.6,4.165,2.5,357,41,4.8,0.00222,0.00249,39.6,45.3,26,515,0,.,16.25,0.00,0.00
15min,AgWx,beryljct,423,27OCT2021:10:30:00,48.3,14.09,43.6,43.2,42.2,43.4,41.4,59,63,57,0.546,28.9,30.2,28.0,0,1.6,316,47,4.0,0.00241,0.00267,39.8,45.3,26,545,0,.,16.25,0.00,0.00
15min,AgWx,beryljct,423,27OCT2021:10:45:00,49.7,14.08,43.4,44.1,43.5,45.0,42.5,57,61,55,0.553,29.2,32.3,27.5,1.622,1.5,66,71,4.2,0.00259,0.00286,39.9,45.2,26,572,0,.,16.25,0.00,0.00
15min,AgWx,beryljct,423,27OCT2021:11:00:00,51.0,14.05,45.1,44.6,44.8,45.6,43.7,56,58,54,0.561,30.2,31.7,29.3,3.179,1.7,133,55,4.6,0.00276,0.00305,40.2,45.1,26,596,0,.,16.25,0.00,0.00
15min,AgWx,beryljct,423,27OCT2021:11:15:00,51.8,14.03,46.6,46.4,45.1,46.4,44.4,58,62,56,0.659,31.1,33.9,29.8,5.152,3.0,85,25,5.6,0.00282,0.00319,40.5,45.1,26,616,0,.,16.25,0.00,0.00
15min,AgWx,beryljct,423,27OCT2021:11:30:00,52.5,14.01,47.3,47.0,46.2,47.1,45.7,57,61,55,0.621,31.9,33.8,30.5,3.529,3.2,68,21,5.2,0.00294,0.00333,40.9,45.1,26,631,0,.,16.25,0.00,0.00
15min,AgWx,beryljct,423,27OCT2021:11:45:00,53.1,13.99,47.2,48.0,47.3,48.0,46.9,55,58,52,0.611,31.8,33.3,30.6,3.946,2.7,34,32,5.5,0.00305,0.00344,41.3,45.1,26,642,0,.,16.25,0.00,0.00
15min,AgWx,beryljct,423,27OCT2021:12:00:00,54.0,14,48.5,48.9,48.5,49.7,47.5,53,56,51,0.628,32.0,34.4,30.7,3.529,2.0,31,64,5.3,0.00316,0.00351,41.8,45.0,26,650,0,.,16.25,0.00,0.00
15min,AgWx,beryljct,423,27OCT2021:12:15:00,54.8,13.96,48.5,49.5,49.0,49.5,48.3,51,54,49,0.606,31.8,33.5,30.8,3.244,2.8,61,33,6.1,0.00320,0.00362,42.3,45.0,26,654,0,.,16.24,0.00,0.00
15min,AgWx,beryljct,423,27OCT2021:12:30:00,55.4,13.93,50.0,50.5,49.9,50.8,49.2,52,55,49,0.642,32.9,35.2,31.0,3.003,3.1,72,23,6.0,0.00325,0.00370,42.8,45.0,26,655,0,.,16.24,0.00,0.00
15min,AgWx,beryljct,423,27OCT2021:12:45:00,55.8,13.92,50.1,50.6,50.5,51.2,49.9,51,53,47,0.604,32.8,34.6,30.5,1.359,4.2,63,18,8.0,0.00326,0.00379,43.4,45.0,26,650,0,.,16.24,0.00,0.00
15min,AgWx,beryljct,423,27OCT2021:13:00:00,56.4,13.91,52.0,51.6,51.5,52.4,50.4,52,56,48,0.658,34.3,36.5,31.7,5.7,4.2,87,27,7.2,0.00308,0.00359,43.9,45.0,26,606,0,.,16.24,0.00,0.00
15min,AgWx,beryljct,423,27OCT2021:13:15:00,56.9,13.88,52.8,53.1,52.3,53.1,51.7,51,53,48,0.693,34.5,35.9,32.9,2.762,3.0,73,31,5.6,0.00268,0.00311,44.4,45.0,26,523,0,.,16.24,0.00,0.00
15min,AgWx,beryljct,423,27OCT2021:13:30:00,57.8,13.82,53.1,53.3,53.0,53.7,52.5,47,51,44,0.643,33.2,35.8,31.7,2.85,4.0,30,28,7.3,0.00323,0.00379,44.9,45.1,26,616,0,.,16.24,0.00,0.00
15min,AgWx,beryljct,423,27OCT2021:13:45:00,58.8,13.79,54.1,54.1,54.1,54.8,53.3,47,52,43,0.613,34.1,37.4,32.0,3.201,3.1,52,32,6.6,0.00317,0.00366,45.5,45.1,26,598,0,.,16.23,0.00,0.00
15min,AgWx,beryljct,423,27OCT2021:14:00:00,59.9,13.82,55.1,55.0,54.8,55.3,54.1,46,50,43,0.688,34.2,37.0,31.9,3.179,2.9,67,25,6.6,0.00307,0.00355,46.0,45.1,26,576,0,.,16.23,0.00,0.00
15min,AgWx,beryljct,423,27OCT2021:14:15:00,60.7,13.77,54.6,55.1,55.3,55.9,54.8,45,49,41,0.640,34.6,36.9,31.6,2.762,3.8,57,27,6.9,0.00284,0.00337,46.4,45.2,26,524,0,.,16.23,0.00,0.00
15min,AgWx,beryljct,423,27OCT2021:14:30:00,61.4,13.74,54.9,55.4,55.7,56.0,55.0,44,47,41,0.628,34.3,36.3,32.2,2.411,3.8,71,27,7.4,0.00283,0.00338,46.9,45.3,26,519,0,.,16.23,0.00,0.00
15min,AgWx,beryljct,423,27OCT2021:14:45:00,62.0,13.74,55.4,55.8,55.9,56.5,55.3,42,46,41,0.627,33.4,35.7,32.2,3.595,1.2,46,51,5.0,0.00246,0.00275,47.3,45.4,26,481,0,.,16.23,0.00,0.00
15min,AgWx,beryljct,423,27OCT2021:15:00:00,62.6,13.72,55.9,55.9,56.0,56.5,55.6,43,47,41,0.653,34.0,36.4,32.3,3.529,4.1,85,15,9.3,0.00250,0.00307,47.7,45.4,26,453,0,.,16.22,0.00,0.00
15min,AgWx,beryljct,423,27OCT2021:15:15:00,62.6,13.73,56.9,56.9,56.3,56.9,55.9,43,46,41,0.727,34.1,36.4,32.4,3.508,3.6,70,38,7.6,0.00229,0.00280,48.1,45.5,26,420,0,.,16.22,0.00,0.00
15min,AgWx,beryljct,423,27OCT2021:15:30:00,62.8,13.75,56.3,56.5,56.5,56.9,56.2,43,46,41,0.691,34.5,36.4,32.9,3.99,3.5,68,19,6.2,0.00206,0.00254,48.3,45.6,26,380,0,.,16.22,0.00,0.00
15min,AgWx,beryljct,423,27OCT2021:15:45:00,62.6,13.71,56.0,56.2,56.3,56.6,56.0,44,47,41,0.662,34.6,36.5,32.8,5.459,5.5,57,17,8.3,0.00197,0.00261,48.6,45.7,26,338,0,.,16.22,0.00,0.00
15min,AgWx,beryljct,423,27OCT2021:16:00:00,62.3,13.75,56.3,56.3,56.2,56.4,56.0,43,46,41,0.639,34.0,35.8,32.5,3.003,4.0,53,17,7.1,0.00162,0.00212,48.8,45.8,26,295,0,.,16.22,0.00,0.00
15min,AgWx,beryljct,423,27OCT2021:16:15:00,62.1,13.74,56.4,56.6,56.5,56.7,56.3,43,46,40,0.695,34.3,36.1,32.7,4.691,3.4,27,16,5.9,0.00131,0.00175,49.0,46.0,26,252,0,.,16.22,0.00,0.00
15min,AgWx,beryljct,423,27OCT2021:16:30:00,61.9,13.74,56.1,56.0,56.2,56.6,56.0,45,50,43,0.692,35.4,37.6,33.8,5.042,4.6,54,16,6.9,0.00117,0.00168,49.1,46.1,26,208,0,.,16.21,0.00,0.00
15min,AgWx,beryljct,423,27OCT2021:16:45:00,61.1,13.78,54.9,55.1,55.6,56.0,55.1,47,49,44,0.725,35.5,36.7,34.1,5.919,5.7,63,14,7.5,0.00059,0.00076,49.1,46.2,26,166,0,.,16.22,0.00,0.00
15min,AgWx,beryljct,423,27OCT2021:17:00:00,59.9,13.17,54.0,54.3,54.7,55.2,54.3,50,54,47,0.749,36.6,38.1,35.3,4.121,5.0,49,8.9,8.0,0.00044,0.00059,49.1,46.3,26,124,0,.,16.22,0.00,0.00
15min,AgWx,beryljct,423,27OCT2021:17:15:00,58.4,13.87,53.0,52.9,53.7,54.2,52.9,53,56,51,0.753,37.1,37.7,36.4,5.349,4.5,43,6.5,5.5,0.00029,0.00040,49.1,46.4,26,78,0,.,16.22,0.00,0.00
15min,AgWx,beryljct,423,27OCT2021:17:30:00,56.6,13.11,53.3,53.4,53.0,53.5,52.6,54,56,51,0.715,36.6,37.3,35.8,5.196,4.6,15,11,5.8,0.00018,0.00026,49.0,46.5,26,25,0,.,16.22,0.00,0.00
15min,AgWx,beryljct,423,27OCT2021:17:45:00,54.7,13.04,49.8,49.5,51.5,53.4,49.1,56,62,51,0.740,36.4,36.8,35.9,3.639,3.8,357,7.7,5.8,0.00008,0.00013,48.9,46.6,26,7,0,.,16.22,0.00,0.00
15min,AgWx,beryljct,423,27OCT2021:18:00:00,52.2,13.01,49.4,49.0,48.4,49.5,47.4,63,65,61,0.718,36.4,36.8,36.0,3.551,2.8,335,13,3.6,-0.00004,-0.00003,48.8,46.7,26,2,0,.,16.23,0.00,0.00
15min,AgWx,beryljct,423,27OCT2021:18:15:00,50.1,12.99,47.5,46.7,48.0,49.3,46.0,62,67,60,0.716,35.8,36.2,35.1,3.858,3.8,319,4.0,4.2,0.00002,0.00006,48.6,46.8,26,0,0,.,16.23,0.00,0.00
15min,AgWx,beryljct,423,27OCT2021:18:30:00,48.2,12.96,44.1,44.6,46.0,47.1,44.6,66,70,64,0.698,35.4,36.0,34.9,3.727,4.0,327,8.2,4.5,0.00001,0.00003,48.4,46.9,26,0,0,.,16.23,0.00,0.00
15min,AgWx,beryljct,423,27OCT2021:18:45:00,46.7,12.96,43.1,44.2,44.6,45.4,44.0,71,72,69,0.706,35.6,36.2,35.1,4.034,4.0,327,5.1,4.6,-0.00002,0.00000,48.2,47.0,26,0,0,.,16.23,0.00,0.00
15min,AgWx,beryljct,423,27OCT2021:19:00:00,45.4,12.95,42.5,43.0,43.1,44.1,42.1,75,78,72,0.696,35.7,36.3,35.2,4.319,4.2,343,11,5.1,-0.00003,-0.00002,48.0,47.1,26,0,0,.,16.23,0.00,0.00
15min,AgWx,beryljct,423,27OCT2021:19:15:00,44.3,12.94,41.6,40.8,41.2,42.9,40.5,78,80,74,0.694,34.8,35.4,34.3,3.025,3.5,343,11,5.0,-0.00007,-0.00007,47.8,47.1,26,0,0,.,16.23,0.00,0.00
15min,AgWx,beryljct,423,27OCT2021:19:30:00,43.4,12.93,43.0,42.5,42.2,42.6,40.9,77,80,75,0.696,35.4,35.8,35.0,3.508,3.6,314,4.0,4.1,-0.00006,-0.00006,47.6,47.2,26,0,0,.,16.23,0.00,0.00
15min,AgWx,beryljct,423,27OCT2021:19:45:00,42.7,12.92,42.8,42.0,42.3,42.7,41.7,76,77,75,0.689,35.1,35.5,34.7,4.362,3.8,319,5.8,5.0,-0.00005,-0.00004,47.4,47.3,26,0,0,.,16.24,0.00,0.00
15min,AgWx,beryljct,423,27OCT2021:20:00:00,42.3,12.91,42.4,40.7,41.3,42.6,40.2,78,81,75,0.699,34.9,35.5,34.4,3.858,3.8,333,10,5.3,-0.00005,-0.00005,47.2,47.3,26,0,0,.,16.24,0.00,0.00
15min,AgWx,beryljct,423,27OCT2021:20:15:00,41.8,12.91,41.2,41.3,41.3,41.7,40.7,78,81,76,0.687,34.9,35.7,34.2,3.266,3.5,314,8.9,5.0,-0.00007,-0.00007,47.0,47.4,26,0,0,.,16.24,0.00,0.00
15min,AgWx,beryljct,423,27OCT2021:20:30:00,41.4,12.9,44.4,43.4,42.1,43.4,41.2,76,79,72,0.689,35.0,35.6,34.2,3.376,2.3,322,20,3.7,-0.00012,-0.00014,46.8,47.4,26,0,0,.,16.24,0.00,0.00
15min,AgWx,beryljct,423,27OCT2021:20:45:00,41.1,12.89,42.5,42.2,42.6,43.9,41.6,73,75,69,0.684,34.4,35.0,33.9,1.776,1.7,21,31,3.0,-0.00014,-0.00018,46.6,47.4,26,0,0,.,16.24,0.00,0.00
15min,AgWx,beryljct,423,27OCT2021:21:00:00,40.6,12.87,39.5,40.2,41.0,42.3,40.2,77,79,74,0.665,34.3,35.4,33.3,0,0.8,21,32,3.0,-0.00021,-0.00030,46.4,47.5,26,0,0,.,16.24,0.00,0.00
15min,AgWx,beryljct,423,27OCT2021:21:15:00,40.1,12.87,41.6,40.9,40.0,40.9,39.2,80,81,79,0.681,34.2,34.8,33.4,0.811,0.6,245,40,1.7,-0.00023,-0.00033,46.2,47.5,26,0,0,.,16.25,0.00,0.00
15min,AgWx,beryljct,423,27OCT2021:21:30:00,39.6,12.87,37.7,37.0,38.9,41.3,37.0,81,86,74,0.626,33.6,35.0,31.5,0,1.6,176,39,4.1,-0.00016,-0.00021,46.0,47.5,26,0,0,.,16.25,0.00,0.00
15min,AgWx,beryljct,423,27OCT2021:21:45:00,39.2,12.86,43.1,40.7,39.5,41.1,37.0,81,87,75,0.673,34.2,35.6,32.4,1.732,1.1,215,65,2.2,-0.00019,-0.00026,45.8,47.5,26,0,0,.,16.25,0.00,0.00
15min,AgWx,beryljct,423,27OCT2021:22:00:00,38.9,12.85,36.9,40.9,40.3,41.3,38.7,76,79,73,0.647,33.4,34.8,31.1,4.034,3.0,314,9.6,4.8,-0.00008,-0.00009,45.6,47.5,26,0,0,.,16.25,0.00,0.00
15min,AgWx,beryljct,423,27OCT2021:22:15:00,38.7,12.85,39.1,38.0,38.8,40.6,37.7,79,83,73,0.614,32.8,34.4,30.8,3.968,4.2,312,12,5.3,-0.00005,-0.00004,45.5,47.5,26,0,0,.,16.25,0.00,0.00
15min,AgWx,beryljct,423,27OCT2021:22:30:00,38.5,12.84,41.6,40.5,39.3,40.7,37.2,79,83,76,0.658,33.4,34.7,31.6,4.889,4.6,312,4.3,5.3,-0.00004,-0.00003,45.3,47.6,26,0,0,.,16.25,0.00,0.00
15min,AgWx,beryljct,423,27OCT2021:22:45:00,38.5,12.81,39.0,39.6,39.8,41.0,38.9,78,82,75,0.655,33.5,34.5,32.6,6.05,5.0,314,4.2,6.1,-0.00002,-0.00001,45.1,47.5,26,0,0,.,16.25,0.00,0.00
15min,AgWx,beryljct,423,27OCT2021:23:00:00,38.4,12.82,36.8,37.1,38.3,39.9,37.0,81,83,78,0.621,32.8,34.0,32.2,5.393,5.7,321,4.0,6.4,-0.00002,-0.00001,45.0,47.5,26,0,0,.,16.25,0.00,0.00
15min,AgWx,beryljct,423,27OCT2021:23:15:00,37.9,12.81,37.0,36.7,36.4,37.0,36.1,86,87,83,0.635,32.5,33.0,31.9,4.691,4.8,310,3.8,5.4,-0.00006,-0.00006,44.8,47.5,26,0,0,.,16.25,0.00,0.00
15min,AgWx,beryljct,423,27OCT2021:23:30:00,37.6,12.8,39.7,38.2,37.6,38.3,36.2,83,87,81,0.651,33.0,33.8,32.1,6.642,5.5,324,9.8,6.9,-0.00004,-0.00003,44.6,47.5,26,0,0,.,16.25,0.00,0.00
15min,AgWx,bigpiney,439,27OCT2021:00:00:00,29.4,12.61,30.2,30.2,30.3,30.5,30.1,78,79,78,0.448,24.4,24.6,24.2,7.497,7.4,289,6.3,9.2,0.00005,0.00006,-157.7,.,.,0,0,0.0,6.37,0.00,0.00
15min,AgWx,bigpiney,439,27OCT2021:00:15:00,29.8,12.6,30.5,30.4,30.3,30.6,30.0,80,81,79,0.456,24.8,25.0,24.4,6.971,8.3,291,7.6,12.0,0.00005,0.00006,-157.7,.,.,0,0,0.0,6.37,0.00,0.00
15min,AgWx,bigpiney,439,27OCT2021:00:30:00,30.3,12.61,30.7,30.5,30.6,30.8,30.3,79,80,79,0.457,25.0,25.1,24.8,2.938,5.2,316,20,8.7,0.00001,0.00003,-151.0,.,.,0,0,0.0,6.37,0.00,0.00
15min,AgWx,bigpiney,439,27OCT2021:00:45:00,30.6,12.59,29.0,28.9,29.6,30.6,28.9,82,85,79,0.454,24.8,25.0,24.6,3.201,3.5,38,15,4.9,-0.00003,-0.00003,-157.7,.,.,0,0,0.0,6.37,0.00,0.00
15min,AgWx,bigpiney,439,27OCT2021:01:00:00,30.8,12.59,28.7,28.6,28.9,29.0,28.6,85,85,84,0.450,24.8,24.9,24.5,3.968,2.5,66,42,5.7,-0.00006,-0.00007,-157.7,.,.,0,0,0.0,6.37,0.00,0.00
15min,AgWx,bigpiney,439,27OCT2021:01:15:00,30.8,12.59,28.9,28.7,28.5,28.7,28.2,85,86,84,0.450,24.6,24.9,24.4,1.798,3.5,157,21,6.9,-0.00003,-0.00004,-157.7,.,.,0,0,0.0,6.37,0.00,0.00
15min,AgWx,bigpiney,439,27OCT2021:01:30:00,30.7,12.58,28.9,28.4,28.7,29.0,28.3,84,85,83,0.447,24.4,24.8,24.1,3.99,2.7,157,35,5.7,-0.00005,-0.00006,-157.7,.,.,0,0,0.0,6.37,0.00,0.00
15min,AgWx,bigpiney,439,27OCT2021:01:45:00,30.5,12.58,28.0,28.4,28.4,29.1,27.9,84,86,82,0.437,24.3,24.8,23.7,1.973,3.7,202,43,7.2,-0.00003,-0.00003,-151.0,.,.,0,0,0.0,6.37,0.00,0.00
15min,AgWx,bigpiney,439,27OCT2021:02:00:00,30.5,12.58,29.3,29.2,28.9,29.3,28.1,83,85,82,0.444,24.3,24.7,23.7,4.275,3.0,139,32,4.5,-0.00004,-0.00004,-157.7,.,.,0,0,0.0,6.37,0.00,0.00
15min,AgWx,bigpiney,439,27OCT2021:02:15:00,30.6,12.57,30.5,30.0,29.7,30.0,29.1,81,82,80,0.455,24.7,24.9,24.2,1.754,3.8,136,14,6.0,-0.00002,-0.00001,-157.7,.,.,0,0,0.0,6.37,0.00,0.00
15min,AgWx,bigpiney,439,27OCT2021:02:30:00,30.8,12.57,30.1,29.8,29.8,30.1,29.6,82,82,80,0.456,24.8,25.0,24.6,3.003,3.4,121,9.5,4.7,-0.00003,-0.00003,-157.7,.,.,0,0,0.0,6.37,0.00,0.00
15min,AgWx,bigpiney,439,27OCT2021:02:45:00,31.0,12.58,30.1,29.9,29.8,30.0,29.6,82,83,81,0.456,24.9,25.1,24.8,5.02,3.8,128,12,5.6,-0.00002,-0.00002,-151.0,.,.,0,0,0.0,6.37,0.00,0.00
15min,AgWx,bigpiney,439,27OCT2021:03:00:00,31.2,12.57,29.9,29.7,30.0,30.2,29.7,81,82,81,0.455,24.9,25.1,24.8,4.077,5.0,122,5.7,6.4,0.00000,0.00001,-157.7,.,.,0,0,0.0,6.37,0.00,0.00
15min,AgWx,bigpiney,439,27OCT2021:03:15:00,31.2,12.57,30.1,29.8,29.5,29.8,29.3,82,82,81,0.451,24.6,24.8,24.3,4.253,4.8,117,9.6,6.6,-0.00000,0.00001,-157.7,.,.,0,0,0.0,6.37,0.00,0.00
15min,AgWx,bigpiney,439,27OCT2021:03:30:00,31.2,12.57,30.5,30.0,29.8,30.0,29.6,81,82,80,0.458,24.8,25.0,24.5,1.293,3.1,155,14,4.6,-0.00003,-0.00003,-151.0,.,.,0,0,0.0,6.37,0.00,0.00
15min,AgWx,bigpiney,439,27OCT2021:03:45:00,31.3,12.56,30.9,30.7,30.5,30.8,30.0,79,81,78,0.454,24.9,25.0,24.7,1.271,1.2,93,70,2.4,-0.00009,-0.00012,-157.7,.,.,0,0,0.0,6.37,0.00,0.00
15min,AgWx,bigpiney,439,27OCT2021:04:00:00,31.5,12.56,30.6,30.4,30.3,30.7,30.1,81,83,78,0.460,25.3,25.5,24.8,4.713,1.5,193,61,4.7,-0.00008,-0.00011,-157.7,.,.,0,0,0.0,6.37,0.00,0.00
15min,AgWx,bigpiney,439,27OCT2021:04:15:00,31.3,12.56,29.2,29.0,29.3,30.4,28.8,84,86,80,0.465,24.9,25.4,24.3,2.653,3.6,103,20,4.8,-0.00003,-0.00003,-151.0,.,.,0,0,0.0,6.37,0.00,0.00
15min,AgWx,bigpiney,439,27OCT2021:04:30:00,31.3,12.56,30.1,29.7,29.2,29.7,28.9,87,88,86,0.486,25.7,26.4,25.3,3.617,4.1,192,16,6.0,-0.00003,-0.00003,-151.0,.,.,0,0,0.0,6.37,0.00,0.00
15min,AgWx,bigpiney,439,27OCT2021:04:45:00,31.3,12.55,30.0,29.7,29.9,30.0,29.7,86,88,86,0.484,26.3,26.6,26.2,3.99,4.1,130,22,6.3,-0.00003,-0.00003,-157.7,.,.,0,0,0.0,6.37,0.00,0.00
15min,AgWx,bigpiney,439,27OCT2021:05:00:00,31.3,12.55,29.5,29.3,29.5,29.8,29.3,88,89,87,0.489,26.4,26.6,26.2,4.582,4.2,149,18,5.6,-0.00003,-0.00004,-157.7,.,.,0,0,0.0,6.37,0.00,0.00
15min,AgWx,bigpiney,439,27OCT2021:05:15:00,31.3,12.56,29.8,29.5,29.4,29.5,29.3,90,90,89,0.495,26.7,26.9,26.5,3.551,3.9,160,12,5.7,-0.00004,-0.00005,-151.0,.,.,0,0,0.0,6.37,0.00,0.00
15min,AgWx,bigpiney,439,27OCT2021:05:30:00,31.3,12.56,29.8,29.5,29.5,29.6,29.4,90,90,90,0.496,26.8,26.9,26.8,4.472,3.7,138,11,5.0,-0.00005,-0.00005,-157.7,.,.,0,0,0.0,6.37,0.00,0.00
15min,AgWx,bigpiney,439,27OCT2021:05:45:00,31.3,12.56,30.0,29.7,29.6,29.8,29.5,89,90,89,0.496,26.9,27.0,26.8,0.592,2.5,149,8.5,4.8,-0.00007,-0.00008,-151.0,.,.,0,0,0.0,6.37,0.00,0.00
15min,AgWx,bigpiney,439,27OCT2021:06:00:00,31.3,12.56,29.2,29.1,29.5,29.9,29.1,89,90,89,0.487,26.8,27.1,26.5,2.828,2.7,111,75,6.0,-0.00006,-0.00008,-151.0,.,.,0,0,0.0,6.37,0.00,0.00
15min,AgWx,bigpiney,439,27OCT2021:06:15:00,31.3,12.54,29.1,28.8,28.9,29.1,28.8,91,92,90,0.492,26.6,26.8,26.4,1.885,0.9,112,63,2.5,-0.00011,-0.00016,-151.0,.,.,0,0,0.0,6.37,0.00,0.00
15min,AgWx,bigpiney,439,27OCT2021:06:30:00,31.2,12.54,29.2,28.9,28.7,28.9,28.6,92,92,92,0.496,26.7,26.9,26.5,0.022,1.3,42,56,2.3,-0.00010,-0.00014,-157.7,.,.,0,0,0.0,6.37,0.00,0.00
15min,AgWx,bigpiney,439,27OCT2021:06:45:00,31.0,12.55,28.8,28.7,28.9,29.1,28.7,92,92,92,0.488,26.8,27.2,26.5,3.091,1.9,171,19,4.0,-0.00009,-0.00011,-157.7,.,.,1,0,0.0,6.37,0.00,0.00
15min,AgWx,bigpiney,439,27OCT2021:07:00:00,30.8,12.72,29.0,28.7,28.4,28.7,28.1,92,92,91,0.491,26.3,26.7,25.9,0.46,1.4,212,51,3.2,-0.00007,-0.00009,-151.0,.,.,15,0,0.0,6.37,0.00,0.00
15min,AgWx,bigpiney,439,27OCT2021:07:15:00,30.6,12.77,29.5,29.1,28.7,29.1,28.6,92,92,91,0.497,26.6,26.9,26.4,0,0.7,324,28,3.0,-0.00026,-0.00028,-151.0,.,.,30,0,0.0,6.37,0.00,0.00
15min,AgWx,bigpiney,439,27OCT2021:07:30:00,30.7,12.88,29.7,29.6,29.2,29.6,29.1,91,92,90,0.496,26.9,27.2,26.7,2.214,0.7,341,25,2.9,-0.00017,-0.00018,-151.0,.,.,43,0,0.0,6.37,0.00,0.00
15min,AgWx,bigpiney,439,27OCT2021:07:45:00,30.9,13.06,31.0,30.7,30.0,30.7,29.6,89,90,86,0.500,27.1,27.3,26.9,1.688,1.9,21,21,3.1,0.00002,0.00004,-157.7,.,.,69,0,0.0,6.37,0.00,0.00
15min,AgWx,bigpiney,439,27OCT2021:08:00:00,31.2,14.56,32.5,32.1,31.4,32.1,30.7,83,86,80,0.494,26.9,27.4,26.5,3.003,1.4,311,40,3.9,0.00016,0.00020,-151.0,.,.,113,0,0.0,6.37,0.00,0.00
15min,AgWx,bigpiney,439,27OCT2021:08:15:00,32.0,14.83,33.0,32.8,32.7,33.0,32.1,80,82,78,0.503,27.2,27.6,26.9,3.771,4.2,294,10,7.1,0.00037,0.00048,-157.7,.,.,132,0,0.0,6.37,0.00,0.00
15min,AgWx,bigpiney,439,27OCT2021:08:30:00,32.8,14.81,34.0,33.8,33.1,33.8,32.8,79,80,77,0.515,27.2,27.8,26.8,2.389,3.7,252,21,5.4,0.00049,0.00060,-151.0,.,.,156,0,0.0,6.37,0.00,0.00
15min,AgWx,bigpiney,439,27OCT2021:08:45:00,34.0,14.75,35.0,34.9,34.4,35.0,33.7,76,79,74,0.514,27.7,28.5,27.1,3.113,3.1,266,19,4.7,0.00089,0.00103,-151.0,.,.,286,0,0.0,6.37,0.00,0.00